Temp
6 6 6 6 7 8 8 8 8 9 9 10 10 11 12 12 13 12 11 11 13 14 15 16 17 18 19 20 22 23 23 24 26 27 28 25 25 25 24 25 27 28 27 24 23
6 6 6 7 7 8 7 8 9 9 9 10 11 11 11 11 12 12 11 11 12 13 15 16 19 20 20 21 22 23 23 24 26 23 23 24 23 23 23 23 24 27 27 25 24
5 6 6 7 7 7 8 9 9 9 9 9 11 11 11 12 12 12 11 12 12 14 14 16 17 18 21 23 23 23 22 25 24 19 20 21 22 22 22 23 23 24 23 24 24
5 6 6 7 7 7 8 8 9 10 10 10 11 12 12 12 15 12 11 12 13 14 15 17 18 20 22 23 23 22 23 23 22 20 20 20 20 21 21 21 21 22 22 22 22
5 6 6 6 7 8 8 9 9 9 9 10 11 11 11 13 12 12 12 12 13 14 15 16 18 20 22 23 21 21 22 21 20 19 19 19 20 20 20 21 21 21 22 22 22
5 6 6 6 7 7 8 9 9 10 10 10 11 11 12 14 11 12 13 12 13 14 14 14 16 16 18 18 19 18 19 19 19 20 20 19 19 19 20 21 21 21 21 22 22
6 6 6 6 7 8 9 9 9 10 10 11 11 11 13 12 12 13 13 13 12 13 14 13 14 17 17 18 16 17 18 20 21 20 20 18 19 21 21 20 21 21 21 21 22
6 6 6 7 7 8 8 9 9 10 10 11 11 11 12 12 12 13 13 13 13 13 13 13 14 16 17 17 18 20 20 20 20 21 20 18 17 20 19 19 19 19 19 19 19
6 6 7 7 7 8 8 9 9 10 11 11 11 12 14 12 13 13 12 13 13 13 13 13 15 18 17 18 19 20 18 18 19 20 19 19 17 19 18 18 18 18 18 18 18
5 6 7 7 7 8 9 9 9 10 11 11 12 13 13 14 13 13 13 13 14 14 15 15 16 19 18 18 17 16 16 17 18 19 18 17 17 18 17 17 16 16 17 18 18
5 5 6 7 7 8 9 9 10 10 11 13 14 14 13 13 13 14 13 14 15 16 17 18 18 15 15 16 16 16 16 17 18 18 16 16 16 15 13 12 13 14 15 15 18
4 5 6 7 7 8 8 9 9 9 12 12 13 13 12 12 14 14 14 15 17 18 17 18 15 15 16 17 16 17 16 16 17 17 16 16 16 14 12 11 11 11 11 11 11
4 5 6 6 7 8 8 9 8 9 12 13 13 14 13 13 14 13 13 15 16 18 17 16 15 16 16 16 15 16 15 14 14 16 17 17 15 12 11 10 8 9 9 9 8
4 5 5 6 7 7 8 7 7 10 12 14 13 13 12 13 14 13 13 14 16 16 16 15 15 15 16 15 14 14 15 14 14 15 14 17 13 11 9 8 9 7 6 6 7
3 4 5 5 6 8 7 7 9 10 9 15 15 12 13 14 14 14 12 14 16 15 15 14 15 14 14 14 14 14 14 14 15 15 15 15 13 9 8 5 6 6 5 5 5
3 4 5 5 6 6 6 8 9 10 9 14 14 13 14 14 14 14 14 13 14 16 16 15 14 14 14 15 14 15 15 16 16 16 12 13 13 7 5 5 6 6 4 3 3
3 4 4 4 6 6 6 7 9 7 15 14 14 15 15 14 14 15 15 14 15 14 15 15 15 14 14 14 15 15 14 14 14 12 11 14 10 5 5 6 5 6 4 3 3
2 3 4 4 4 5 6 10 6 11 13 16 15 15 15 15 15 14 15 15 15 15 16 15 13 14 14 13 13 14 13 11 10 12 13 13 9 6 6 5 5 4 4 4 3
2 3 4 4 5 5 7 6 7 12 16 15 15 14 15 15 14 14 15 15 13 13 14 14 13 14 13 13 14 12 12 13 11 13 12 11 6 8 8 8 5 5 3 4 4
1 3 4 4 5 4 7 7 10 14 16 16 14 15 14 14 13 14 14 13 12 12 12 12 13 14 14 13 14 13 13 10 11 9 10 10 8 8 7 6 7 6 5 6 4
1 5 4 4 4 5 5 7 10 13 14 15 15 15 16 15 14 14 14 13 12 12 12 13 12 13 13 12 12 12 11 10 9 10 9 10 7 10 9 9 9 9 8 8 7
1 4 3 4 5 6 5 9 10 13 12 14 14 15 15 16 14 14 14 13 11 12 12 11 12 12 13 13 13 12 11 11 7 8 9 8 8 11 11 11 11 11 10 9 9
2 4 3 3 3 4 7 8 10 11 13 13 13 14 15 15 13 15 14 10 10 11 11 11 10 11 11 12 12 11 12 11 10 9 8 8 8 12 12 12 12 11 11 11 11
2 2 2 3 5 7 7 7 8 10 12 12 13 14 14 14 13 13 12 10 9 10 8 9 11 11 11 12 12 12 12 12 11 9 10 10 11 12 12 12 12 11 11 11 10
1 2 3 2 3 6 8 9 8 9 11 12 12 13 13 9 11 12 13 10 9 7 8 10 9 12 12 12 12 12 12 12 12 10 10 12 12 12 12 12 11 11 11 10 10
1 1 5 5 4 5 7 8 9 10 11 11 11 12 13 11 12 10 12 10 9 8 9 10 9 10 4 10 11 11 12 12 13 13 12 12 12 13 12 12 11 11 10 9 9
-1 2 4 4 6 6 6 8 9 11 11 11 12 12 12 13 13 13 13 12 12 10 9 8 7 7 8 11 11 8 11 12 13 13 13 11 12 12 12 11 11 10 9 8 8
Height
1520 1519 1518 1517 1516 1515 1514 1513 1512 1511 1509 1509 1509 1510 1511 1510 1509 1509 1506 1507 1503 1501 1500 1498 1498 1499 1500 1499 1496 1497 1500 1494 1485 1480 1476 1480 1485 1489 1493 1494 1492 1491 1494 1499 1500
1520 1520 1519 1517 1516 1516 1516 1514 1512 1511 1510 1509 1510 1511 1510 1510 1507 1509 1508 1505 1503 1502 1499 1500 1498 1498 1497 1493 1493 1496 1493 1488 1483 1489 1491 1489 1491 1495 1499 1499 1496 1493 1496 1496 1500
1521 1520 1519 1518 1517 1516 1515 1513 1512 1511 1511 1513 1511 1512 1512 1511 1510 1512 1509 1506 1504 1502 1499 1501 1499 1499 1493 1490 1490 1490 1493 1481 1489 1496 1498 1497 1497 1498 1501 1501 1500 1500 1499 1498 1500
1521 1520 1519 1518 1517 1516 1515 1514 1513 1513 1512 1511 1513 1514 1513 1512 1509 1512 1510 1507 1505 1503 1502 1499 1497 1495 1490 1486 1488 1492 1490 1489 1492 1498 1499 1500 1501 1500 1502 1506 1505 1502 1501 1501 1501
1521 1520 1519 1518 1518 1516 1515 1515 1514 1514 1514 1512 1514 1514 1514 1513 1514 1513 1509 1508 1507 1506 1504 1501 1497 1493 1488 1486 1492 1495 1493 1494 1497 1500 1503 1503 1502 1503 1502 1504 1504 1503 1500 1501 1502
1521 1520 1519 1518 1517 1516 1515 1516 1516 1516 1516 1516 1516 1516 1516 1515 1514 1513 1511 1510 1508 1506 1504 1501 1501 1498 1496 1497 1497 1500 1500 1500 1502 1503 1505 1507 1506 1505 1503 1501 1500 1501 1499 1500 1502
1521 1520 1519 1518 1517 1516 1516 1516 1517 1517 1518 1519 1519 1517 1518 1517 1514 1512 1511 1510 1508 1507 1505 1504 1503 1501 1501 1499 1504 1504 1503 1496 1498 1503 1505 1509 1504 1499 1499 1498 1497 1500 1500 1500 1500
1521 1520 1519 1518 1517 1516 1516 1517 1518 1519 1519 1520 1519 1518 1517 1516 1514 1514 1511 1511 1509 1508 1506 1504 1504 1504 1502 1502 1500 1496 1496 1494 1498 1499 1502 1507 1511 1500 1503 1504 1504 1503 1501 1499 1499
1521 1520 1519 1518 1517 1517 1517 1518 1519 1520 1520 1521 1520 1519 1516 1516 1516 1514 1512 1511 1510 1509 1506 1506 1505 1501 1501 1498 1496 1495 1503 1505 1503 1499 1504 1507 1508 1504 1505 1504 1504 1504 1503 1501 1499
1520 1520 1520 1519 1518 1517 1518 1520 1520 1521 1521 1520 1520 1521 1517 1516 1516 1515 1513 1512 1511 1510 1509 1506 1503 1499 1503 1499 1505 1510 1511 1508 1507 1502 1506 1509 1509 1508 1507 1505 1505 1504 1502 1500 1498
1519 1519 1520 1520 1519 1519 1520 1521 1524 1524 1520 1518 1517 1517 1517 1517 1515 1514 1513 1512 1511 1508 1504 1501 1502 1515 1515 1513 1510 1510 1509 1507 1502 1505 1511 1510 1509 1510 1515 1515 1514 1512 1507 1501 1494
1517 1517 1518 1520 1520 1520 1521 1522 1522 1523 1520 1518 1518 1517 1517 1517 1515 1515 1514 1514 1506 1504 1506 1504 1515 1516 1512 1509 1509 1506 1507 1509 1507 1509 1510 1506 1505 1513 1521 1524 1525 1520 1515 1510 1499
1517 1516 1517 1519 1520 1522 1522 1523 1521 1521 1520 1516 1515 1515 1517 1518 1516 1516 1515 1513 1508 1503 1505 1504 1515 1513 1510 1510 1513 1507 1514 1517 1518 1509 1501 1502 1507 1521 1528 1530 1529 1524 1523 1519 1513
1516 1516 1517 1518 1522 1522 1523 1521 1522 1522 1516 1510 1513 1513 1516 1515 1515 1516 1515 1515 1511 1509 1507 1513 1516 1514 1511 1514 1516 1513 1514 1515 1513 1511 1510 1500 1515 1527 1533 1536 1533 1530 1528 1526 1519
1514 1515 1516 1518 1518 1522 1521 1521 1522 1524 1527 1506 1508 1511 1513 1513 1513 1514 1515 1512 1508 1512 1512 1518 1516 1516 1516 1519 1517 1516 1514 1511 1507 1505 1501 1505 1510 1537 1539 1542 1540 1538 1537 1535 1528
1514 1514 1516 1519 1520 1520 1519 1520 1524 1527 1525 1504 1504 1508 1510 1511 1512 1512 1514 1515 1514 1511 1510 1515 1519 1521 1520 1515 1517 1513 1505 1497 1497 1497 1517 1516 1513 1544 1549 1549 1544 1542 1540 1535 1530
1512 1513 1515 1516 1521 1519 1519 1523 1524 1531 1500 1499 1502 1504 1503 1507 1510 1508 1507 1511 1508 1512 1511 1513 1516 1519 1521 1515 1512 1512 1509 1505 1506 1512 1523 1509 1524 1553 1551 1548 1546 1542 1539 1537 1533
1511 1512 1513 1514 1518 1518 1520 1521 1528 1506 1498 1491 1495 1502 1501 1503 1505 1509 1508 1508 1510 1506 1501 1506 1523 1518 1522 1523 1522 1517 1519 1525 1528 1515 1511 1511 1533 1545 1548 1548 1546 1543 1542 1539 1534
1510 1511 1511 1513 1514 1517 1520 1520 1512 1499 1487 1491 1495 1500 1500 1502 1505 1506 1505 1506 1514 1514 1510 1510 1518 1520 1523 1523 1520 1520 1523 1523 1527 1513 1514 1522 1546 1543 1543 1543 1544 1543 1541 1539 1537
1509 1512 1511 1511 1513 1516 1516 1511 1502 1492 1485 1489 1494 1492 1496 1501 1507 1502 1507 1512 1517 1519 1517 1517 1518 1517 1521 1521 1520 1522 1524 1529 1526 1531 1526 1523 1535 1538 1541 1542 1540 1539 1538 1534 1533
1510 1509 1506 1508 1512 1515 1510 1506 1500 1494 1493 1489 1488 1489 1485 1492 1500 1501 1503 1514 1517 1518 1518 1516 1519 1520 1519 1520 1524 1523 1525 1533 1538 1532 1532 1525 1540 1533 1535 1537 1534 1534 1534 1532 1530
1508 1506 1503 1505 1511 1505 1504 1499 1497 1491 1494 1490 1490 1487 1488 1486 1497 1497 1500 1506 1516 1517 1517 1521 1517 1519 1516 1520 1524 1526 1528 1529 1541 1539 1534 1536 1538 1532 1530 1531 1530 1530 1529 1529 1526
1505 1501 1501 1503 1502 1503 1499 1497 1496 1494 1491 1492 1492 1488 1488 1489 1500 1494 1500 1515 1519 1519 1519 1522 1524 1522 1525 1525 1525 1524 1525 1527 1531 1536 1538 1538 1535 1528 1528 1527 1528 1528 1528 1526 1526
1502 1497 1496 1498 1496 1495 1495 1495 1494 1492 1489 1490 1489 1489 1490 1491 1497 1498 1503 1517 1521 1520 1524 1524 1518 1517 1517 1517 1517 1520 1521 1521 1526 1532 1523 1522 1520 1521 1523 1526 1526 1527 1527 1526 1525
1494 1488 1487 1491 1493 1491 1488 1486 1487 1487 1486 1487 1488 1487 1489 1500 1498 1500 1500 1515 1521 1524 1525 1524 1523 1515 1516 1516 1517 1517 1515 1516 1517 1523 1524 1516 1517 1516 1522 1525 1525 1526 1526 1526 1526
1485 1485 1483 1485 1485 1488 1481 1479 1478 1481 1482 1482 1485 1486 1488 1492 1495 1500 1497 1508 1514 1522 1522 1523 1522 1520 1537 1520 1518 1517 1514 1512 1511 1510 1512 1514 1513 1515 1521 1522 1524 1525 1525 1527 1526
1478 1479 1480 1479 1475 1478 1475 1476 1476 1475 1477 1480 1482 1485 1486 1488 1493 1495 1497 1503 1505 1512 1517 1521 1525 1526 1524 1515 1516 1521 1508 1506 1506 1506 1508 1513 1511 1515 1518 1521 1523 1524 1525 1527 1526
Wind_Speed
5 5 6 6 7 7 6 5 6 7 6 3 5 13 14 10 12 9 7 7 6 5 8 13 10 9 11 14 15 8 10 12 16 16 10 13 7 3 13 13 12 10 7 11 7
5 5 5 6 6 6 6 5 5 6 6 3 11 14 10 5 6 11 11 10 5 8 13 9 8 7 13 13 16 13 10 16 10 14 13 14 12 10 10 12 17 11 7 6 6
5 5 5 6 6 6 6 5 5 6 6 4 15 12 3 4 7 6 12 11 12 11 11 10 9 9 15 14 16 11 13 15 12 12 14 13 9 12 12 9 13 20 19 17 10
6 5 5 6 5 5 4 4 3 4 6 4 17 7 2 4 3 8 15 16 15 16 11 6 7 11 12 10 7 3 12 5 10 12 15 15 18 17 15 16 19 20 17 16 14
5 5 5 5 5 5 3 2 2 4 7 9 14 4 4 2 5 10 16 13 11 8 9 6 5 6 5 0 5 6 9 8 8 12 13 16 18 17 23 20 23 22 23 19 17
4 5 4 4 5 5 2 1 2 6 12 12 8 4 5 4 5 9 9 11 9 9 8 9 5 7 6 7 4 7 8 8 8 9 7 12 17 18 21 22 20 17 12 13 15
5 5 4 3 4 4 1 3 3 6 8 9 10 5 7 3 7 10 8 9 8 8 7 6 5 4 1 4 1 3 6 9 5 3 2 12 11 10 17 19 9 13 19 21 22
5 5 4 3 3 2 4 5 6 10 12 5 2 2 2 3 4 8 7 5 8 7 4 3 3 5 1 2 6 6 4 4 8 6 7 2 11 9 22 20 20 23 24 23 22
6 6 4 2 1 1 5 5 8 12 4 3 5 6 2 3 6 8 6 5 5 5 5 3 4 3 6 6 7 8 5 6 8 6 10 10 16 17 23 23 24 25 25 26 25
6 7 6 3 1 3 6 5 6 10 4 5 8 6 2 2 4 8 5 4 2 2 3 4 7 5 10 9 4 7 6 7 9 8 10 13 14 17 22 23 26 27 28 29 26
6 6 5 4 2 5 9 3 1 4 8 8 3 3 3 2 5 9 6 3 5 6 3 3 9 7 8 7 5 4 7 9 10 10 12 14 13 16 26 28 28 29 31 40 25
6 5 4 3 3 7 7 2 4 4 5 6 4 1 1 1 4 8 4 6 2 5 3 9 9 5 4 3 7 6 6 9 8 12 11 11 10 19 24 21 23 31 36 39 45
6 4 3 2 3 6 2 4 3 3 6 8 7 5 2 4 1 5 6 2 5 4 8 13 8 3 4 8 10 6 5 8 9 12 13 10 7 19 21 24 27 26 34 37 40
5 4 3 5 4 3 3 3 2 0 4 10 7 6 6 4 4 2 4 3 1 4 8 7 4 3 2 7 8 7 7 9 9 9 7 4 4 15 17 18 24 27 29 37 38
5 5 7 10 6 2 3 3 5 1 3 11 11 7 6 6 2 4 1 4 5 5 4 5 5 6 5 6 6 7 11 13 11 12 10 11 3 7 12 12 16 21 23 27 33
6 6 7 5 6 3 2 7 8 1 6 7 8 9 11 7 2 3 3 1 2 3 8 7 4 6 5 8 2 11 15 17 14 9 2 5 4 3 6 6 10 17 22 25 29
6 9 14 8 1 7 7 8 3 4 2 8 8 13 12 7 5 5 8 7 4 8 9 8 6 5 7 8 4 11 13 5 0 2 2 2 7 0 4 10 10 12 15 20 23
8 10 15 14 3 6 6 6 4 6 10 4 10 12 11 10 6 7 6 7 3 8 3 6 6 2 4 4 6 6 9 5 4 6 5 4 3 3 5 7 11 10 14 15 14
7 5 13 14 13 11 12 4 6 7 11 8 13 12 9 11 2 9 7 3 3 6 2 3 5 5 3 4 8 7 5 6 4 7 7 5 4 5 5 7 7 12 11 13 13
6 6 11 12 14 8 8 8 7 10 3 11 12 13 13 13 7 10 8 3 5 2 3 2 4 4 3 4 5 4 6 1 2 4 4 7 6 4 6 2 3 2 1 1 1
8 7 9 15 15 11 6 7 9 9 8 9 17 7 10 11 13 11 9 8 1 5 1 1 2 6 4 2 3 2 3 3 2 4 3 4 4 5 6 3 1 3 3 4 2
11 6 10 16 12 10 9 11 9 12 12 7 4 9 10 10 11 10 7 3 8 5 4 4 2 2 5 4 3 1 0 2 1 3 2 3 1 1 4 3 4 7 7 1 2
12 17 9 17 7 6 11 15 18 12 13 8 8 10 8 8 6 7 8 11 8 6 4 6 3 4 4 5 7 5 4 3 5 3 4 2 2 5 2 3 6 8 11 13 12
15 3 6 18 19 16 14 14 17 14 17 15 8 8 8 9 7 7 10 7 7 4 6 1 4 5 3 4 0 6 8 7 5 3 4 4 2 4 2 5 8 9 12 12 15
14 5 9 5 13 17 20 10 19 11 20 21 11 13 12 5 9 9 13 12 9 7 7 3 4 6 5 4 5 8 8 8 11 11 7 1 7 4 2 3 7 11 12 14 15
9 5 17 17 26 23 19 21 17 19 12 15 13 14 14 9 10 9 12 12 8 11 9 6 3 1 4 9 7 9 12 12 12 10 8 3 8 9 1 3 7 9 10 13 16
28 21 16 9 18 17 18 20 21 15 19 19 20 12 15 13 15 6 14 17 5 12 11 7 3 4 2 2 5 8 18 16 13 11 9 8 7 4 2 5 8 8 8 12 14
Wind_Direction
21 16 13 5 4 360 1 5 0 7 9 29 126 120 114 99 56 31 9 350 348 21 8 344 289 245 241 244 234 241 264 257 256 259 287 109 87 10 351 334 311 324 73 107 71
17 12 6 6 4 356 349 1 4 11 20 99 132 134 125 98 85 27 2 358 359 17 13 333 299 242 229 223 220 225 229 245 27 27 10 28 37 9 337 327 313 310 318 106 83
11 6 4 6 360 354 349 355 5 8 10 153 149 140 118 354 309 29 353 10 33 23 3 299 263 259 243 218 214 222 244 284 50 31 354 342 336 340 329 307 302 331 331 336 14
1 1 360 1 357 352 347 344 13 37 31 81 155 157 28 336 27 351 6 11 13 7 349 318 242 229 240 200 229 245 267 2 315 6 344 335 324 308 297 292 292 304 305 312 329
348 350 353 357 356 352 344 344 30 65 64 92 144 129 325 222 355 348 359 352 7 2 11 353 8 309 234 200 33 245 284 18 351 338 326 321 317 305 297 288 281 288 292 283 292
322 334 343 356 357 354 344 118 96 109 105 111 107 41 297 269 336 346 347 359 8 13 20 31 19 336 52 28 324 1 326 311 293 291 338 328 315 305 292 284 271 276 307 290 280
301 314 330 346 355 1 128 148 141 143 134 126 111 77 26 27 352 351 353 347 12 13 22 23 360 332 185 157 71 272 276 248 220 53 302 342 292 315 359 355 340 283 286 284 291
292 298 308 327 355 20 153 157 148 145 132 150 133 325 34 349 38 355 6 358 12 17 11 13 81 64 21 145 197 213 211 25 132 346 332 59 309 345 338 334 322 320 316 315 313
300 293 293 298 338 103 155 159 173 169 175 129 338 288 146 332 356 1 356 3 355 10 22 2 264 296 164 242 187 82 8 0 323 354 352 327 313 325 324 319 313 309 304 298 298
309 298 292 281 263 150 143 133 162 209 229 299 275 259 184 170 2 0 353 20 12 348 245 259 222 68 35 3 102 25 356 325 315 356 348 323 321 327 336 351 357 350 334 306 287
306 295 286 277 228 163 144 115 225 219 211 301 57 24 117 174 351 3 357 307 257 240 113 285 79 53 36 30 18 335 290 310 4 4 349 317 309 48 25 22 11 0 350 345 295
295 282 272 269 232 176 155 250 39 304 267 227 229 232 81 180 247 16 344 241 275 161 209 126 78 54 337 17 359 296 333 12 325 354 321 310 296 57 40 24 17 14 7 356 6
289 264 234 235 167 150 218 296 269 309 254 196 214 212 208 223 28 13 357 249 337 87 72 63 72 3 350 40 350 347 30 343 324 324 291 10 63 39 24 26 18 19 11 7 6
281 238 184 150 152 203 209 272 273 164 267 169 207 206 181 198 220 7 2 304 119 78 61 65 82 350 2 27 351 292 16 321 308 317 330 353 280 40 25 19 22 16 10 4 6
270 221 181 187 146 215 201 226 185 33 262 156 150 139 173 214 80 138 30 257 67 109 247 103 57 12 23 350 349 313 312 285 277 268 295 343 336 356 15 3 2 16 16 9 6
263 202 179 171 215 248 223 162 144 198 240 171 159 188 178 185 175 126 151 78 57 134 59 98 154 62 347 304 30 288 310 279 244 255 66 355 0 44 2 336 347 11 18 11 10
252 200 178 158 210 235 159 154 171 193 188 171 185 176 186 168 157 209 164 176 226 184 172 152 88 127 14 356 177 1 347 3 183 180 80 201 75 165 19 354 352 359 11 19 19
249 215 199 189 231 223 180 214 196 201 216 127 171 180 203 158 162 178 199 148 81 291 172 192 169 38 56 11 340 22 35 13 306 355 337 44 60 83 110 44 19 2 356 1 22
248 228 224 207 206 185 213 193 212 221 198 173 162 188 196 184 260 193 216 117 53 358 329 202 124 127 90 337 356 10 30 331 287 280 272 118 67 110 159 66 47 42 23 1 354
232 248 239 219 200 200 229 217 238 244 259 192 188 198 198 192 203 201 171 151 139 32 323 107 155 158 97 236 104 60 31 12 335 323 314 118 77 47 63 38 69 219 44 343 268
224 227 178 209 192 204 220 213 239 250 249 219 218 187 249 175 204 201 169 129 194 123 308 111 299 136 215 63 30 4 60 68 303 304 312 322 112 57 78 60 305 150 160 346 69
226 219 195 198 191 212 226 213 244 241 222 247 313 264 228 174 199 186 166 135 157 151 158 60 306 215 74 95 112 99 193 75 235 48 347 252 112 35 84 126 64 40 130 123 32
226 226 199 186 207 225 227 223 252 252 210 219 209 243 229 181 196 186 148 102 142 181 155 159 206 176 171 169 194 230 189 196 164 171 243 263 106 181 35 30 44 25 10 0 16
231 215 171 202 227 207 217 225 224 235 246 219 218 191 202 199 161 189 138 153 164 139 90 31 226 262 332 36 324 194 203 194 219 271 273 226 227 164 148 2 5 6 356 7 10
221 227 190 191 219 233 212 211 215 220 221 205 221 201 195 193 171 209 157 147 182 139 176 234 219 219 266 292 261 253 243 231 220 217 265 261 269 121 87 335 348 358 358 7 5
210 204 207 236 209 217 226 216 221 212 205 215 212 207 206 187 184 205 178 173 177 168 198 188 205 102 319 261 245 253 243 238 241 255 245 264 266 93 4 315 359 350 15 2 356
222 226 250 250 225 213 221 220 223 223 203 217 206 208 215 195 196 226 205 180 197 172 191 156 189 152 233 210 286 280 237 231 226 222 224 214 94 90 49 4 350 329 36 3 357